EN

Hourly Weather Laksau

Today, 25 January, Monday

Time Temperature Precipitation Wind Pressure Humidity
00:00 +19°C° 0 mm 1 mps 702 mmHg 79%
01:00 +16°C° 0 mm 0 mps 701 mmHg 72%
02:00 +16°C° 0 mm 0 mps 701 mmHg 72%
03:00 +16°C° 0 mm 0 mps 701 mmHg 73%
04:00 +15°C° 0 mm 0 mps 701 mmHg 74%
05:00 +16°C° 0 mm 0 mps 701 mmHg 74%
06:00 +16°C° 0 mm 0 mps 702 mmHg 74%
07:00 +16°C° 0 mm 0 mps 702 mmHg 75%
08:00 +20°C° 0 mm 0 mps 703 mmHg 63%
09:00 +24°C° 0 mm 0 mps 704 mmHg 51%
10:00 +28°C° 0 mm 0 mps 705 mmHg 40%
11:00 +29°C° 0 mm 0 mps 705 mmHg 37%
12:00 +32°C° 0 mm 1 mps 704 mmHg 34%
13:00 +33°C° 0 mm 1 mps 704 mmHg 31%
14:00 +32°C° 0 mm 1 mps 703 mmHg 36%
15:00 +31°C° 0 mm 1 mps 703 mmHg 40%
16:00 +30°C° 0 mm 2 mps 702 mmHg 44%
17:00 +27°C° 0 mm 2 mps 702 mmHg 58%
18:00 +24°C° 0 mm 2 mps 702 mmHg 72%
19:00 +21°C° 0 mm 1 mps 702 mmHg 85%
20:00 +20°C° 0 mm 1 mps 703 mmHg 88%
21:00 +20°C° 0 mm 1 mps 703 mmHg 91%
22:00 +19°C° 0 mm 1 mps 703 mmHg 94%
23:00 +19°C° 0 mm 1 mps 703 mmHg 93%

Tomorrow, 26 January, Tuesday

Time Temperature Precipitation Wind Pressure Humidity
00:00 +19°C° 0 mm 1 mps 703 mmHg 93%
01:00 +18°C° 0 mm 1 mps 703 mmHg 93%
02:00 +18°C° 0 mm 1 mps 703 mmHg 93%
03:00 +18°C° 0 mm 1 mps 703 mmHg 92%
04:00 +18°C° 0 mm 1 mps 703 mmHg 91%
05:00 +18°C° 0 mm 1 mps 703 mmHg 91%
06:00 +19°C° 0 mm 1 mps 703 mmHg 90%
07:00 +19°C° 0 mm 1 mps 703 mmHg 89%
08:00 +20°C° 0 mm 1 mps 704 mmHg 81%
09:00 +22°C° 0 mm 1 mps 705 mmHg 73%
10:00 +24°C° 0 mm 2 mps 705 mmHg 65%
11:00 +25°C° 0 mm 2 mps 705 mmHg 60%
12:00 +27°C° 0 mm 2 mps 704 mmHg 54%
13:00 +28°C° 0 mm 2 mps 704 mmHg 49%
14:00 +27°C° 0 mm 2 mps 703 mmHg 52%
15:00 +26°C° 0 mm 2 mps 703 mmHg 56%
16:00 +26°C° 0 mm 2 mps 702 mmHg 59%
17:00 +23°C° 0 mm 2 mps 702 mmHg 69%
18:00 +20°C° 0 mm 2 mps 702 mmHg 79%
19:00 +18°C° 0 mm 2 mps 702 mmHg 90%
20:00 +18°C° 0 mm 1 mps 702 mmHg 92%
21:00 +16°C° 0 mm 1 mps 703 mmHg 95%
22:00 +16°C° 0 mm 1 mps 703 mmHg 97%
23:00 +15°C° 0 mm 1 mps 703 mmHg 97%

Day after tomorrow, 27 January, Wednesday

Time Temperature Precipitation Wind Pressure Humidity
00:00 +15°C° 0 mm 1 mps 703 mmHg 97%
01:00 +15°C° 0 mm 1 mps 702 mmHg 97%
02:00 +15°C° 0 mm 1 mps 702 mmHg 97%
03:00 +14°C° 0 mm 1 mps 702 mmHg 98%
04:00 +14°C° 0 mm 1 mps 702 mmHg 98%
05:00 +14°C° 0 mm 1 mps 702 mmHg 98%
06:00 +14°C° 0 mm 1 mps 703 mmHg 97%
07:00 +15°C° 0 mm 1 mps 703 mmHg 97%
08:00 +19°C° 0 mm 1 mps 704 mmHg 85%
09:00 +21°C° 0 mm 1 mps 704 mmHg 73%
10:00 +24°C° 0 mm 1 mps 705 mmHg 60%
11:00 +26°C° 0 mm 1 mps 705 mmHg 53%
12:00 +28°C° 0 mm 1 mps 704 mmHg 46%
13:00 +30°C° 0 mm 1 mps 704 mmHg 39%
14:00 +30°C° 0 mm 1 mps 703 mmHg 41%
15:00 +29°C° 0 mm 1 mps 703 mmHg 43%
16:00 +29°C° 0 mm 2 mps 702 mmHg 45%
17:00 +26°C° 0 mm 1 mps 702 mmHg 60%
18:00 +22°C° 0 mm 1 mps 702 mmHg 75%
19:00 +19°C° 0 mm 1 mps 702 mmHg 89%
20:00 +19°C° 0 mm 1 mps 702 mmHg 91%
21:00 +19°C° 0 mm 1 mps 703 mmHg 94%
22:00 +18°C° 0 mm 1 mps 703 mmHg 96%
23:00 +18°C° 0 mm 1 mps 703 mmHg 95%

28 January, Thursday

Time Temperature Precipitation Wind Pressure Humidity
00:00 +18°C° 0 mm 1 mps 703 mmHg 93%
01:00 +18°C° 0 mm 1 mps 703 mmHg 92%
02:00 +18°C° 0 mm 1 mps 703 mmHg 93%
03:00 +16°C° 0 mm 1 mps 703 mmHg 94%
04:00 +16°C° 0 mm 1 mps 703 mmHg 94%
05:00 +16°C° 0 mm 2 mps 704 mmHg 93%
06:00 +16°C° 0 mm 2 mps 705 mmHg 91%
07:00 +16°C° 0 mm 2 mps 705 mmHg 90%
08:00 +18°C° 0 mm 2 mps 706 mmHg 81%
09:00 +20°C° 0 mm 2 mps 706 mmHg 73%
10:00 +23°C° 0 mm 2 mps 707 mmHg 64%
11:00 +22°C° 0 mm 3 mps 707 mmHg 63%
12:00 +24°C° 0 mm 3 mps 706 mmHg 62%
13:00 +24°C° 0 mm 3 mps 706 mmHg 62%
14:00 +22°C° 0 mm 3 mps 705 mmHg 64%
15:00 +21°C° 0 mm 3 mps 705 mmHg 66%
16:00 +20°C° 0 mm 3 mps 704 mmHg 68%
17:00 +19°C° 0 mm 2 mps 705 mmHg 75%
18:00 +17°C° 0 mm 2 mps 705 mmHg 82%
19:00 +16°C° 0 mm 2 mps 706 mmHg 89%
20:00 +16°C° 0 mm 2 mps 706 mmHg 90%
21:00 +16°C° 0 mm 2 mps 706 mmHg 91%
22:00 +15°C° 0 mm 2 mps 707 mmHg 92%
23:00 +15°C° 0 mm 2 mps 706 mmHg 92%

29 January, Friday

Time Temperature Precipitation Wind Pressure Humidity
00:00 +15°C° 0 mm 2 mps 706 mmHg 92%
01:00 +14°C° 0 mm 2 mps 706 mmHg 91%
02:00 +14°C° 0 mm 2 mps 706 mmHg 92%
03:00 +14°C° 0 mm 2 mps 706 mmHg 93%
04:00 +14°C° 0 mm 2 mps 705 mmHg 94%
05:00 +14°C° 0 mm 2 mps 706 mmHg 94%
06:00 +14°C° 0 mm 2 mps 706 mmHg 94%
07:00 +14°C° 0 mm 2 mps 706 mmHg 94%
08:00 +16°C° 0 mm 2 mps 707 mmHg 85%
09:00 +18°C° 0 mm 2 mps 708 mmHg 75%
10:00 +19°C° 0 mm 2 mps 708 mmHg 65%
11:00 +20°C° 0 mm 2 mps 708 mmHg 63%
12:00 +20°C° 0 mm 3 mps 707 mmHg 62%
13:00 +20°C° 0 mm 3 mps 707 mmHg 61%
14:00 +20°C° 0 mm 2 mps 706 mmHg 62%
15:00 +19°C° 0 mm 2 mps 705 mmHg 64%
16:00 +19°C° 0 mm 2 mps 705 mmHg 66%
17:00 +18°C° 0 mm 2 mps 705 mmHg 72%
18:00 +16°C° 0 mm 2 mps 705 mmHg 79%
19:00 +15°C° 0 mm 1 mps 705 mmHg 86%
20:00 +14°C° 0 mm 1 mps 705 mmHg 89%
21:00 +14°C° 0 mm 1 mps 706 mmHg 92%
22:00 +13°C° 0 mm 1 mps 706 mmHg 96%
23:00 +13°C° 0 mm 1 mps 706 mmHg 95%

30 January, Saturday

Time Temperature Precipitation Wind Pressure Humidity
00:00 +13°C° 0 mm 1 mps 705 mmHg 95%
01:00 +13°C° 0 mm 1 mps 705 mmHg 95%
02:00 +13°C° 0 mm 1 mps 705 mmHg 95%
03:00 +13°C° 0 mm 1 mps 705 mmHg 95%
04:00 +13°C° 0 mm 1 mps 704 mmHg 95%
05:00 +13°C° 0 mm 1 mps 705 mmHg 95%
06:00 +13°C° 0 mm 1 mps 705 mmHg 96%
07:00 +13°C° 0 mm 1 mps 705 mmHg 96%
08:00 +16°C° 0 mm 1 mps 706 mmHg 85%
09:00 +19°C° 0 mm 1 mps 707 mmHg 74%
10:00 +21°C° 0 mm 1 mps 708 mmHg 64%
11:00 +22°C° 0 mm 1 mps 707 mmHg 60%
12:00 +23°C° 0 mm 2 mps 707 mmHg 56%
13:00 +25°C° 0 mm 2 mps 706 mmHg 52%
14:00 +24°C° 0 mm 2 mps 706 mmHg 55%
15:00 +23°C° 0 mm 2 mps 705 mmHg 57%
16:00 +23°C° 0 mm 2 mps 705 mmHg 59%
17:00 +20°C° 0 mm 2 mps 705 mmHg 70%
18:00 +17°C° 0 mm 2 mps 705 mmHg 81%
19:00 +15°C° 0 mm 1 mps 705 mmHg 91%
20:00 +15°C° 0 mm 1 mps 705 mmHg 93%
21:00 +14°C° 0 mm 1 mps 706 mmHg 96%
22:00 +14°C° 0 mm 1 mps 706 mmHg 98%
23:00 +14°C° 0 mm 1 mps 706 mmHg 98%
Show more

We Need Your Consent

Meteoprog and our Service Providers may store and access personal data such as cookies, device identifiers or other similar technologies on your device and process such data to personalise content and ads, as well as provide social media features and to analyse the traffic.

  • Store and/or access information on your device

    Cookies, device identifiers or other information can be stored or accessed on your device for the purposes indicated above.

  • Personalised ads and content, ad and content measurement, audience insights, and products development

    Ads and content can be personalised based on a profile. More data can be added to better personalise ads and content. Ad and content performance can be measured. Insights about the audience who saw the ads and content can be derived. Such data can be used to develop or improve user’s experience, systems and software.

By clicking ‘I Agree’ you will allow the use of indicated cookies, device identifiers, web beacons or other similar technologies. Your settings can be changed in the browser on your device.

For certain purposes, legitimate interests may be relied on, rather than consent. You can read more about this in our Privacy and Cookie Policy.